KIRKWALL AIRPORT current weather conditions

sailwx.info

Wind from 210 at 10 knots

Air temperature 6.0° C
Visibility: greater than 5.4 NM
Dewpoint 3.0° C

Last reported at 2015-Mar-27 22:20 UTC.
Time now 2015-Mar-28 00:34 UTC

Location: N 58°57' W 002°54'.
View on Google Maps.

See reports from other nearby stations

  
Tides and Currents Weather Stations Pressure Air Temp Water Temp Dewpoint Dewpoint Depression Visibility Wind Speed Wind Dir Waves Ship Positions
date/time (UTC)wind fromknots sea level pressurealtimeterstation pressurevisibilityair tempwater tempwave heightnotes
2015-Mar-27 23:20 200 10 5.4 5.0
2015-Mar-27 22:50 200 11 5.4 6.0
2015-Mar-27 22:20 210 10 5.4 6.0
2015-Mar-27 21:50 210 9 5.4 5.0
2015-Mar-27 21:20 210 9 5.4 5.0
2015-Mar-27 20:50 230 9 5.4 6.0
2015-Mar-27 20:20 210 9 5.4 6.0
2015-Mar-27 19:50 230 9 5.4 6.0
2015-Mar-27 19:20 220 9 5.4 6.0
2015-Mar-27 18:50 240 14 5.4 7.0 Rain showers.
2015-Mar-27 18:20 230 11 5.4 7.0
2015-Mar-27 17:50 240 12 5.4 7.0
2015-Mar-27 17:20 240 11 5.4 8.0
2015-Mar-27 16:50 240 12 5.4 8.0
2015-Mar-27 16:20 250 11 5.4 9.0
2015-Mar-27 15:50 250 14 5.4 9.0
2015-Mar-27 15:20 250 14 5.4 9.0
2015-Mar-27 14:50 240 12 5.4 9.0
2015-Mar-27 14:20 240 13 5.4 9.0
2015-Mar-27 13:50 230 15 5.4 9.0
2015-Mar-27 13:20 240 13 5.4 9.0
2015-Mar-27 12:50 230 13 5.4 9.0
2015-Mar-27 12:20 230 14 5.4 8.0
2015-Mar-27 11:50 240 15 5.4 8.0
2015-Mar-27 11:20 240 12 5.4 9.0
2015-Mar-27 10:50 230 13 5.4 7.0
2015-Mar-27 10:20 230 12 5.4 7.0
2015-Mar-27 09:50 230 12 5.4 7.0
2015-Mar-27 09:20 230 11 5.4 6.0
2015-Mar-27 08:50 230 10 5.4 6.0 Showers in the vicinity.
2015-Mar-27 08:20 250 11 5.4 6.0 Showers in the vicinity.
2015-Mar-27 07:50 240 5 5.4 5.0 Showers in the vicinity.
2015-Mar-27 07:20 250 5 5.4 4.0
2015-Mar-27 06:50 250 5 5.4 4.0
2015-Mar-27 06:20 250 4 5.4 3.0
2015-Mar-27 05:50 250 5 5.4 3.0
2015-Mar-27 05:20 270 5 5.4 2.0
2015-Mar-27 04:50 270 6 5.4 2.0
2015-Mar-27 04:20 280 6 5.4 2.0
2015-Mar-27 03:50 280 6 5.4 2.0
2015-Mar-27 03:20 300 10 5.4 4.0
2015-Mar-27 02:50 290 10 5.4 4.0
2015-Mar-27 02:20 300 12 5.4 5.0
2015-Mar-27 01:50 300 15 5.4 5.0
2015-Mar-27 01:20 310 13 5.4 5.0
2015-Mar-27 00:50 310 15 5.4 5.0
2015-Mar-27 00:20 310 14 5.4 6.0
2015-Mar-26 23:50 300 14 5.4 5.0 Light rain.
2015-Mar-26 23:20 300 13 5.4 5.0
2015-Mar-26 22:50 280 10 5.4 5.0
2015-Mar-26 22:20 260 7 5.4 3.0
2015-Mar-26 21:50 270 6 5.4 2.0
2015-Mar-26 21:20 250 3 5.4 2.0
2015-Mar-26 20:50 270 4 5.4 2.0
2015-Mar-26 20:20 260 3 5.4 4.0
2015-Mar-26 19:50 220 2 5.4 4.0
2015-Mar-26 19:20 190 3 5.4 4.0
2015-Mar-26 18:50 160 2 5.4 5.0
2015-Mar-26 18:20 160 4 5.4 5.0
2015-Mar-26 17:50 150 5 5.4 5.0
2015-Mar-26 17:20 170 5 5.4 5.0
2015-Mar-26 16:50 150 5 5.4 5.0 Showers in the vicinity.
2015-Mar-26 16:20 170 6 5.4 5.0 Showers in the vicinity.
2015-Mar-26 15:50 150 7 4.9 5.0 Light rain.
2015-Mar-26 15:20 160 8 5.4 5.0 Rain.
2015-Mar-26 14:50 160 8 5.4 5.0 Rain.
2015-Mar-26 14:20 150 8 5.4 5.0 Light rain.
2015-Mar-26 13:50 160 10 5.4 5.0 Light rain.
2015-Mar-26 13:20 150 12 5.4 6.0 Light rain.
2015-Mar-26 12:50 140 13 5.4 6.0 Light rain.
2015-Mar-26 12:20 140 11 5.4 5.0 Light rain.
2015-Mar-26 11:50 140 14 5.4 5.0 Light rain.
2015-Mar-26 11:20 140 13 3.8 5.0 Rain.
2015-Mar-26 10:50 150 13 4.3 5.0 Rain.
2015-Mar-26 10:20 150 11 5.4 5.0 Light rain.
2015-Mar-26 09:50 140 10 5.4 5.0 Light rain.
2015-Mar-26 09:20 160 13 5.4 4.0 Rain.
2015-Mar-26 08:50 140 15 5.4 6.0 Showers in the vicinity.
2015-Mar-26 08:20 140 15 gusting 25 5.4 6.0 Showers in the vicinity.
2015-Mar-26 07:50 140 15 5.4 6.0
2015-Mar-26 07:20 140 14 5.4 6.0
2015-Mar-26 06:50 140 15 5.4 6.0
2015-Mar-26 06:20 140 13 5.4 5.0
2015-Mar-26 05:50 140 15 5.4 5.0
2015-Mar-26 05:20 140 14 5.4 5.0
2015-Mar-26 04:50 140 15 5.4 5.0
2015-Mar-26 04:20 140 14 5.4 5.0
2015-Mar-26 03:50 140 15 5.4 5.0
2015-Mar-26 03:20 140 14 5.4 5.0
2015-Mar-26 02:50 140 14 5.4 5.0
2015-Mar-26 02:20 140 15 5.4 5.0
2015-Mar-26 01:50 140 13 5.4 5.0
2015-Mar-26 01:20 140 17 5.4 5.0
2015-Mar-26 00:50 150 15 5.4 5.0
2015-Mar-26 00:20 150 16 5.4 5.0